Time,TemperatureF,DewpointF,PressureIn,WindDirection,WindDirectionDegrees,WindSpeedMPH,WindSpeedGustMPH,Humidity,HourlyPrecipIn,Conditions,Clouds,dailyrainin,SolarRadiationWatts/m^2,SoftwareType,DateUTC
2013-12-13 00:02:00,44.0,30.0,-100.00,East,94,4.0,7.0,57,0.00,,,0.00,61.000000,,2013-12-13 00:02:00,
2013-12-13 00:42:00,42.0,30.0,-100.00,ESE,105,3.0,5.0,63,0.00,,,0.00,9.000000,,2013-12-13 00:42:00,
2013-12-13 00:53:00,42.0,30.0,-100.00,ESE,105,3.0,5.0,63,0.00,,,0.00,9.000000,,2013-12-13 00:53:00,
2013-12-13 01:02:00,42.0,30.0,-100.00,ESE,105,3.0,5.0,63,0.00,,,0.00,9.000000,,2013-12-13 01:02:00,
2013-12-13 01:42:00,41.0,31.0,-100.00,East,89,4.0,7.0,66,0.00,,,0.00,0.000000,,2013-12-13 01:42:00,
2013-12-13 01:52:00,41.0,31.0,-100.00,East,89,4.0,7.0,66,0.00,,,0.00,0.000000,,2013-12-13 01:52:00,
2013-12-13 02:01:00,41.0,31.0,-100.00,East,89,4.0,7.0,66,0.00,,,0.00,0.000000,,2013-12-13 02:01:00,
2013-12-13 02:42:00,41.0,31.0,-100.00,East,82,6.0,7.0,66,0.00,,,0.00,0.000000,,2013-12-13 02:42:00,
2013-12-13 02:52:00,41.0,31.0,-100.00,East,82,6.0,7.0,66,0.00,,,0.00,0.000000,,2013-12-13 02:52:00,
2013-12-13 03:02:00,41.0,31.0,-100.00,East,82,6.0,7.0,66,0.00,,,0.00,0.000000,,2013-12-13 03:02:00,
2013-12-13 03:43:00,40.0,31.0,-100.00,SE,144,2.0,7.0,69,0.00,,,0.00,0.000000,,2013-12-13 03:43:00,
2013-12-13 03:53:00,40.0,31.0,-100.00,SE,144,2.0,7.0,69,0.00,,,0.00,0.000000,,2013-12-13 03:53:00,
2013-12-13 04:03:00,40.0,31.0,-100.00,SE,144,2.0,7.0,69,0.00,,,0.00,0.000000,,2013-12-13 04:03:00,
2013-12-13 04:44:00,40.0,31.0,-100.00,ESE,114,4.0,7.0,71,0.00,,,0.00,0.000000,,2013-12-13 04:44:00,
2013-12-13 04:53:00,40.0,31.0,-100.00,ESE,114,4.0,7.0,71,0.00,,,0.00,0.000000,,2013-12-13 04:53:00,
2013-12-13 05:02:00,40.0,31.0,-100.00,ESE,114,4.0,7.0,71,0.00,,,0.00,0.000000,,2013-12-13 05:02:00,
2013-12-13 05:42:00,41.0,32.0,-100.00,SE,142,3.0,10.0,71,0.00,,,0.00,0.000000,,2013-12-13 05:42:00,
2013-12-13 05:53:00,41.0,32.0,-100.00,SE,142,3.0,10.0,71,0.00,,,0.00,0.000000,,2013-12-13 05:53:00,
2013-12-13 06:02:00,41.0,32.0,-100.00,SE,142,3.0,10.0,71,0.00,,,0.00,0.000000,,2013-12-13 06:02:00,
2013-12-13 06:43:00,42.0,32.0,-100.00,SE,140,5.0,8.0,68,0.00,,,0.00,0.000000,,2013-12-13 06:43:00,
2013-12-13 06:52:00,42.0,32.0,-100.00,SE,140,5.0,8.0,68,0.00,,,0.00,0.000000,,2013-12-13 06:52:00,
2013-12-13 07:02:00,42.0,32.0,-100.00,SE,140,5.0,8.0,68,0.00,,,0.00,0.000000,,2013-12-13 07:02:00,
2013-12-13 07:42:00,43.0,34.0,-100.00,ESE,117,2.0,7.0,69,0.00,,,-99.99,0.000000,,2013-12-13 07:42:00,
2013-12-13 07:52:00,43.0,34.0,-100.00,ESE,117,2.0,7.0,69,0.00,,,-99.99,0.000000,,2013-12-13 07:52:00,
2013-12-13 08:02:00,43.0,34.0,-100.00,ESE,117,2.0,7.0,69,0.00,,,-99.99,0.000000,,2013-12-13 08:02:00,
2013-12-13 08:42:00,44.0,34.0,-100.00,SSE,155,3.0,6.0,67,0.00,,,0.00,0.000000,,2013-12-13 08:42:00,
2013-12-13 08:52:00,44.0,34.0,-100.00,SSE,155,3.0,6.0,67,0.00,,,0.00,0.000000,,2013-12-13 08:52:00,
2013-12-13 09:02:00,44.0,34.0,-100.00,SSE,155,3.0,6.0,67,0.00,,,0.00,0.000000,,2013-12-13 09:02:00,
2013-12-13 09:43:00,44.0,34.0,-100.00,East,95,3.0,5.0,69,0.00,,,0.00,0.000000,,2013-12-13 09:43:00,
2013-12-13 09:54:00,44.0,34.0,-100.00,East,95,3.0,5.0,69,0.00,,,0.00,0.000000,,2013-12-13 09:54:00,
2013-12-13 10:03:00,44.0,34.0,-100.00,East,95,3.0,5.0,69,0.00,,,0.00,0.000000,,2013-12-13 10:03:00,
2013-12-13 10:43:00,44.0,34.0,-100.00,SE,126,5.0,8.0,69,0.00,,,0.00,0.000000,,2013-12-13 10:43:00,
2013-12-13 10:53:00,44.0,34.0,-100.00,SE,126,5.0,8.0,69,0.00,,,0.00,0.000000,,2013-12-13 10:53:00,
2013-12-13 11:02:00,44.0,34.0,-100.00,SE,126,5.0,8.0,69,0.00,,,0.00,0.000000,,2013-12-13 11:02:00,
2013-12-13 11:43:00,43.0,36.0,-100.00,ESE,108,6.0,10.0,76,0.00,,,0.00,0.000000,,2013-12-13 11:43:00,
2013-12-13 11:53:00,43.0,36.0,-100.00,ESE,108,6.0,10.0,76,0.00,,,0.00,0.000000,,2013-12-13 11:53:00,
2013-12-13 12:02:00,43.0,36.0,-100.00,ESE,108,6.0,10.0,76,0.00,,,0.00,0.000000,,2013-12-13 12:02:00,
2013-12-13 12:42:00,42.0,38.0,-100.00,SE,133,2.0,8.0,85,0.01,,,0.01,0.000000,,2013-12-13 12:42:00,
2013-12-13 12:53:00,42.0,38.0,-100.00,SE,133,2.0,8.0,85,0.01,,,0.01,0.000000,,2013-12-13 12:53:00,
2013-12-13 13:02:00,42.0,38.0,-100.00,SE,133,2.0,8.0,85,0.01,,,0.01,0.000000,,2013-12-13 13:02:00,
2013-12-13 13:42:00,43.0,37.0,-100.00,ESE,108,3.0,5.0,78,0.00,,,0.01,0.000000,,2013-12-13 13:42:00,
2013-12-13 13:52:00,43.0,37.0,-100.00,ESE,108,3.0,5.0,78,0.00,,,0.01,0.000000,,2013-12-13 13:52:00,
2013-12-13 14:02:00,43.0,37.0,-100.00,ESE,108,3.0,5.0,78,0.00,,,0.01,0.000000,,2013-12-13 14:02:00,
2013-12-13 14:43:00,42.0,37.0,-100.00,SE,138,2.0,6.0,83,0.00,,,0.01,6.000000,,2013-12-13 14:43:00,
2013-12-13 14:53:00,42.0,37.0,-100.00,SE,138,2.0,6.0,83,0.00,,,0.01,6.000000,,2013-12-13 14:53:00,
2013-12-13 15:02:00,42.0,37.0,-100.00,SE,138,2.0,6.0,83,0.00,,,0.01,6.000000,,2013-12-13 15:02:00,
2013-12-13 15:44:00,45.0,39.0,-100.00,SE,138,3.0,5.0,78,0.00,,,0.01,53.000000,,2013-12-13 15:44:00,
2013-12-13 15:54:00,45.0,39.0,-100.00,SE,138,3.0,5.0,78,0.00,,,0.01,53.000000,,2013-12-13 15:54:00,
2013-12-13 16:03:00,45.0,39.0,-100.00,SE,138,3.0,5.0,78,0.00,,,0.01,53.000000,,2013-12-13 16:03:00,
2013-12-13 16:43:00,48.0,39.0,-100.00,South,182,6.0,10.0,72,0.00,,,0.01,113.000000,,2013-12-13 16:43:00,
2013-12-13 16:53:00,48.0,39.0,-100.00,South,182,6.0,10.0,72,0.00,,,0.01,113.000000,,2013-12-13 16:53:00,
2013-12-13 17:02:00,48.0,39.0,-100.00,South,182,6.0,10.0,72,0.00,,,0.01,113.000000,,2013-12-13 17:02:00,
2013-12-13 17:43:00,50.0,42.0,-100.00,SSW,201,7.0,10.0,74,0.00,,,0.01,98.000000,,2013-12-13 17:43:00,
2013-12-13 17:52:00,50.0,42.0,-100.00,SSW,201,7.0,10.0,74,0.00,,,0.01,98.000000,,2013-12-13 17:52:00,
2013-12-13 18:02:00,50.0,42.0,-100.00,SSW,201,7.0,10.0,74,0.00,,,0.01,98.000000,,2013-12-13 18:02:00,
2013-12-13 18:42:00,56.0,44.0,-100.00,SSW,206,11.0,20.0,64,0.00,,,0.01,380.000000,,2013-12-13 18:42:00,
2013-12-13 18:52:00,56.0,44.0,-100.00,SSW,206,11.0,20.0,64,0.00,,,0.01,380.000000,,2013-12-13 18:52:00,
2013-12-13 19:02:00,56.0,44.0,-100.00,SSW,206,11.0,20.0,64,0.00,,,0.01,380.000000,,2013-12-13 19:02:00,
2013-12-13 19:42:00,58.0,44.0,-100.00,SW,226,14.0,24.0,60,0.01,,,0.02,413.000000,,2013-12-13 19:42:00,
2013-12-13 19:52:00,58.0,44.0,-100.00,SW,226,14.0,24.0,60,0.01,,,0.02,413.000000,,2013-12-13 19:52:00,
2013-12-13 20:02:00,58.0,44.0,-100.00,SW,226,14.0,24.0,60,0.01,,,0.02,413.000000,,2013-12-13 20:02:00,
2013-12-13 20:42:00,62.0,45.0,-100.00,SW,219,12.0,20.0,53,0.00,,,0.02,515.000000,,2013-12-13 20:42:00,
2013-12-13 20:53:00,62.0,45.0,-100.00,SW,219,12.0,20.0,53,0.00,,,0.02,515.000000,,2013-12-13 20:53:00,
2013-12-13 21:02:00,62.0,45.0,-100.00,SW,219,12.0,20.0,53,0.00,,,0.02,515.000000,,2013-12-13 21:02:00,
2013-12-13 21:43:00,62.0,44.0,-100.00,SW,220,12.0,20.0,51,0.00,,,0.02,352.000000,,2013-12-13 21:43:00,
2013-12-13 21:53:00,62.0,44.0,-100.00,SW,220,12.0,20.0,51,0.00,,,0.02,352.000000,,2013-12-13 21:53:00,
2013-12-13 22:03:00,62.0,44.0,-100.00,SW,220,12.0,20.0,51,0.00,,,0.02,352.000000,,2013-12-13 22:03:00,
2013-12-13 22:42:00,64.0,44.0,-100.00,SW,214,11.0,19.0,49,0.00,,,0.02,183.000000,,2013-12-13 22:42:00,
2013-12-13 22:53:00,64.0,44.0,-100.00,SW,214,11.0,19.0,49,0.00,,,0.02,183.000000,,2013-12-13 22:53:00,
2013-12-13 23:03:00,64.0,44.0,-100.00,SW,214,11.0,19.0,49,0.00,,,0.02,183.000000,,2013-12-13 23:03:00,
2013-12-13 23:42:00,63.0,42.0,-100.00,SW,220,11.0,19.0,47,0.00,,,0.02,173.000000,,2013-12-13 23:42:00,
2013-12-13 23:53:00,63.0,42.0,-100.00,SW,220,11.0,19.0,47,0.00,,,0.02,173.000000,,2013-12-13 23:53:00,